| time (UTC) | temp F | wind direction | speed MPH | gust MPH | rain 1hr in | rain 24hr in | rain mn in | humidity % | barometer mb |
| 20260906041539 | 77 | 0 | 0.0 | 0.0 | 0.00 | 0.02 | 0.02 | 98 | 1011.7 |
| 20260906040055 | 76 | 0 | 0.0 | 0.0 | 0.00 | 0.02 | 0.02 | 98 | 1011.5 |
| 20260906034540 | 76 | 0 | 0.0 | 0.0 | 0.00 | 0.02 | 0.02 | 97 | 1011.6 |
| 20260906033039 | 76 | 0 | 0.0 | 0.0 | 0.00 | 0.02 | 0.02 | 97 | 1011.6 |
| 20260906031543 | 77 | 0 | 0.0 | 2.0 | 0.00 | 0.02 | 0.02 | 97 | 1011.7 |
| 20260906030045 | 77 | 0 | 0.0 | 1.0 | 0.00 | 0.02 | 0.02 | 97 | 1011.9 |
| 20260906024540 | 77 | 0 | 0.0 | 2.0 | 0.00 | 0.02 | 0.02 | 97 | 1011.9 |
| 20260906023057 | 77 | 0 | 0.0 | 2.0 | 0.00 | 0.02 | 0.02 | 97 | 1012.0 |
| 20260906021539 | 77 | 0 | 0.0 | 2.0 | 0.00 | 0.02 | 0.02 | 97 | 1011.7 |
| 20260906020044 | 77 | 0 | 0.0 | 2.0 | 0.00 | 0.02 | 0.02 | 96 | 1011.6 |
| 20260906014551 | 77 | 0 | 1.0 | 2.0 | 0.00 | 0.02 | 0.02 | 96 | 1011.4 |
| 20260906013047 | 77 | 18 | 1.0 | 3.0 | 0.00 | 0.02 | 0.02 | 96 | 1011.4 |
| 20260906011551 | 77 | 335 | 0.0 | 1.0 | 0.00 | 0.02 | 0.02 | 96 | 1011.6 |
| 20260906010043 | 78 | 0 | 0.0 | 1.0 | 0.00 | 0.02 | 0.02 | 96 | 1011.6 |
| 20260906004540 | 78 | 350 | 0.0 | 3.0 | 0.01 | 0.02 | 0.02 | 95 | 1011.7 |
| 20260906003038 | 78 | 0 | 0.0 | 2.0 | 0.02 | 0.02 | 0.02 | 95 | 1011.6 |
| 20260906001543 | 78 | 0 | 0.0 | 1.0 | 0.02 | 0.02 | 0.02 | 95 | 1011.6 |
| 20260906000042 | 79 | 0 | 0.0 | 2.0 | 0.02 | 0.02 | 0.02 | 94 | 1011.7 |
| 20260905234551 | 79 | 14 | 0.0 | 3.0 | 0.01 | 0.01 | 0.01 | 94 | 1011.8 |
| 20260905233046 | 80 | 0 | 0.0 | 0.0 | 0.00 | 0.00 | 0.00 | 93 | 1012.0 |
| 20260905231542 | 80 | 0 | 0.0 | 1.0 | 0.00 | 0.00 | 0.00 | 91 | 1012.2 |
| 20260905230043 | 81 | 0 | 0.0 | 1.0 | 0.00 | 0.00 | 0.00 | 89 | 1012.0 |
| 20260905224541 | 81 | 111 | 0.0 | 3.0 | 0.00 | 0.00 | 0.00 | 88 | 1012.4 |
| 20260905223045 | 81 | 0 | 0.0 | 4.0 | 0.00 | 0.00 | 0.00 | 87 | 1012.4 |
| 20260905221542 | 82 | 0 | 1.0 | 4.0 | 0.00 | 0.00 | 0.00 | 85 | 1012.3 |
| 20260905220040 | 83 | 277 | 0.0 | 3.0 | 0.00 | 0.00 | 0.00 | 84 | 1012.5 |
| 20260905214546 | 83 | 0 | 2.0 | 4.0 | 0.00 | 0.00 | 0.00 | 85 | 1012.3 |
| 20260905213042 | 84 | 334 | 2.0 | 5.0 | 0.00 | 0.00 | 0.00 | 83 | 1011.9 |
| 20260905211538 | 85 | 352 | 2.0 | 8.0 | 0.00 | 0.00 | 0.00 | 81 | 1012.1 |
| 20260905210045 | 85 | 227 | 3.0 | 7.0 | 0.00 | 0.00 | 0.00 | 83 | 1012.1 |
| 20260905204542 | 86 | 198 | 4.0 | 9.0 | 0.00 | 0.00 | 0.00 | 82 | 1011.9 |
| 20260905203041 | 84 | 166 | 4.0 | 12.0 | 0.00 | 0.00 | 0.00 | 84 | 1012.2 |
| 20260905201540 | 85 | 242 | 3.0 | 10.0 | 0.00 | 0.00 | 0.00 | 81 | 1012.0 |
| 20260905200052 | 84 | 171 | 2.0 | 10.0 | 0.00 | 0.00 | 0.00 | 85 | 1012.7 |
| 20260905194542 | 83 | 282 | 2.0 | 5.0 | 0.00 | 0.00 | 0.00 | 84 | 1012.8 |
| 20260905193041 | 82 | 209 | 1.0 | 5.0 | 0.00 | 0.00 | 0.00 | 87 | 1012.6 |
| 20260905191546 | 80 | 205 | 4.0 | 7.0 | 0.00 | 0.00 | 0.00 | 88 | 1012.7 |
| 20260905190053 | 81 | 181 | 2.0 | 7.0 | 0.00 | 0.00 | 0.00 | 88 | 1012.6 |
| 20260905184555 | 81 | 111 | 3.0 | 11.0 | 0.00 | 0.00 | 0.00 | 87 | 1012.6 |
| 20260905183051 | 82 | 134 | 3.0 | 10.0 | 0.00 | 0.00 | 0.00 | 85 | 1013.0 |
| 20260905181539 | 84 | 344 | 7.0 | 14.0 | 0.00 | 0.00 | 0.00 | 82 | 1013.2 |
| 20260905180042 | 90 | 355 | 4.0 | 12.0 | 0.00 | 0.00 | 0.00 | 73 | 1013.1 |
| 20260905174541 | 91 | 329 | 6.0 | 13.0 | 0.00 | 0.00 | 0.00 | 73 | 1012.9 |
| 20260905173045 | 92 | 352 | 2.0 | 8.0 | 0.00 | 0.00 | 0.00 | 70 | 1013.0 |
| 20260905171545 | 89 | 0 | 0.0 | 3.0 | 0.00 | 0.00 | 0.00 | 74 | 1013.2 |
| 20260905170044 | 89 | 183 | 1.0 | 8.0 | 0.00 | 0.00 | 0.00 | 73 | 1013.3 |
| 20260905164540 | 90 | 350 | 1.0 | 8.0 | 0.00 | 0.00 | 0.00 | 73 | 1013.5 |
| 20260905163039 | 90 | 18 | 1.0 | 6.0 | 0.00 | 0.00 | 0.00 | 74 | 1013.6 |
| 20260905161546 | 88 | 300 | 2.0 | 7.0 | 0.00 | 0.00 | 0.00 | 78 | 1013.7 |
| 20260905160042 | 87 | 242 | 1.0 | 8.0 | 0.00 | 0.00 | 0.00 | 81 | 1013.8 |
| 20260905154542 | 87 | 54 | 1.0 | 4.0 | 0.00 | 0.00 | 0.00 | 80 | 1013.9 |
| 20260905153052 | 87 | 355 | 1.0 | 7.0 | 0.00 | 0.00 | 0.00 | 80 | 1014.0 |
| 20260905151545 | 87 | 11 | 3.0 | 8.0 | 0.00 | 0.00 | 0.00 | 81 | 1013.9 |
| 20260905150040 | 86 | 340 | 4.0 | 8.0 | 0.00 | 0.00 | 0.00 | 81 | 1013.6 |
| 20260905144540 | 85 | 47 | 3.0 | 6.0 | 0.00 | 0.00 | 0.00 | 83 | 1013.6 |
| 20260905143046 | 85 | 324 | 1.0 | 5.0 | 0.00 | 0.00 | 0.00 | 86 | 1013.8 |
| 20260905141553 | 85 | 44 | 2.0 | 5.0 | 0.00 | 0.00 | 0.00 | 86 | 1013.9 |
| 20260905140044 | 83 | 126 | 0.0 | 4.0 | 0.00 | 0.00 | 0.00 | 91 | 1014.0 |
| 20260905134539 | 81 | 30 | 2.0 | 5.0 | 0.00 | 0.00 | 0.00 | 95 | 1013.9 |
| 20260905133046 | 80 | 19 | 1.0 | 4.0 | 0.00 | 0.00 | 0.00 | 98 | 1013.6 |
| 20260905131557 | 78 | 340 | 1.0 | 3.0 | 0.00 | 0.00 | 0.00 | 98 | 1013.6 |
| 20260905130049 | 77 | 34 | 2.0 | 4.0 | 0.00 | 0.00 | 0.00 | 98 | 1013.6 |
| 20260905124545 | 77 | 65 | 1.0 | 3.0 | 0.00 | 0.00 | 0.00 | 98 | 1013.7 |
| 20260905123039 | 77 | 69 | 1.0 | 3.0 | 0.00 | 0.00 | 0.00 | 98 | 1013.6 |
| 20260905121545 | 77 | 0 | 0.0 | 0.0 | 0.00 | 0.00 | 0.00 | 98 | 1013.5 |
| 20260905120044 | 77 | 0 | 0.0 | 0.0 | 0.00 | 0.00 | 0.00 | 98 | 1013.3 |
| 20260905114541 | 76 | 0 | 0.0 | 0.0 | 0.00 | 0.00 | 0.00 | 98 | 1013.1 |
| 20260905113041 | 76 | 0 | 0.0 | 0.0 | 0.00 | 0.00 | 0.00 | 98 | 1012.9 |
| 20260905111605 | 76 | 0 | 0.0 | 0.0 | 0.00 | 0.00 | 0.00 | 98 | 1012.7 |
| 20260905110048 | 76 | 0 | 0.0 | 0.0 | 0.00 | 0.00 | 0.00 | 98 | 1012.6 |
| 20260905104545 | 76 | 0 | 0.0 | 0.0 | 0.00 | 0.00 | 0.00 | 98 | 1012.4 |
| 20260905103041 | 76 | 0 | 0.0 | 0.0 | 0.00 | 0.00 | 0.00 | 98 | 1012.3 |
| 20260905101549 | 77 | 0 | 0.0 | 0.0 | 0.00 | 0.00 | 0.00 | 98 | 1012.4 |
| 20260905100046 | 77 | 0 | 0.0 | 1.0 | 0.00 | 0.00 | 0.00 | 98 | 1012.4 |
| 20260905094544 | 77 | 0 | 0.0 | 2.0 | 0.00 | 0.00 | 0.00 | 98 | 1012.5 |
| 20260905093049 | 77 | 351 | 0.0 | 2.0 | 0.00 | 0.00 | 0.00 | 98 | 1012.6 |
| 20260905091545 | 77 | 351 | 0.0 | 2.0 | 0.00 | 0.00 | 0.00 | 98 | 1012.5 |
| 20260905090047 | 77 | 195 | 1.0 | 3.0 | 0.00 | 0.00 | 0.00 | 97 | 1012.5 |
| 20260905084540 | 77 | 195 | 0.0 | 2.0 | 0.00 | 0.00 | 0.00 | 97 | 1012.5 |
| 20260905083040 | 77 | 0 | 0.0 | 0.0 | 0.00 | 0.00 | 0.00 | 97 | 1012.4 |
| 20260905081545 | 77 | 0 | 0.0 | 0.0 | 0.00 | 0.00 | 0.00 | 97 | 1012.5 |
| 20260905080047 | 77 | 0 | 0.0 | 0.0 | 0.00 | 0.00 | 0.00 | 97 | 1012.4 |
| 20260905074551 | 77 | 0 | 0.0 | 0.0 | 0.00 | 0.00 | 0.00 | 97 | 1012.4 |
| 20260905073055 | 76 | 0 | 0.0 | 0.0 | 0.00 | 0.00 | 0.00 | 97 | 1012.4 |
| 20260905071547 | 76 | 0 | 0.0 | 0.0 | 0.00 | 0.00 | 0.00 | 96 | 1012.4 |
| 20260905070048 | 76 | 0 | 0.0 | 0.0 | 0.00 | 0.00 | 0.00 | 96 | 1012.5 |
| 20260905064546 | 77 | 0 | 0.0 | 0.0 | 0.00 | 0.00 | 0.00 | 96 | 1012.7 |
| 20260905063039 | 77 | 0 | 0.0 | 0.0 | 0.00 | 0.00 | 0.00 | 96 | 1012.8 |
| 20260905061546 | 77 | 0 | 0.0 | 0.0 | 0.00 | 0.00 | 0.00 | 96 | 1012.7 |
| 20260905060044 | 77 | 0 | 0.0 | 0.0 | 0.00 | 0.00 | 0.00 | 95 | 1012.6 |
| 20260905054544 | 77 | 0 | 0.0 | 0.0 | 0.00 | 0.00 | 0.00 | 95 | 1012.6 |
| 20260905053115 | 77 | 0 | 0.0 | 0.0 | 0.00 | 0.00 | 0.00 | 95 | 1012.7 |
| 20260905051540 | 78 | 0 | 0.0 | 0.0 | 0.00 | 0.00 | 0.00 | 95 | 1012.9 |
| 20260905050039 | 78 | 0 | 0.0 | 0.0 | 0.00 | 0.00 | 0.00 | 95 | 1012.9 |
| 20260905044548 | 78 | 0 | 0.0 | 0.0 | 0.00 | 0.00 | 0.00 | 94 | 1013.0 |
| 20260905043045 | 78 | 0 | 0.0 | 0.0 | 0.00 | 0.00 | 0.00 | 94 | 1013.1 |